GFSNGP_sfc_30mbdewp_045.txt.gz
Dewpoint
21 24 23 21 20 20 21 21 17 16 9 3 6 11 18 22 26 30 36 39 39 38 38 37 36 34 32 34 31 30 23 21 20 21 26 27 27 27 27 28 28 28 27 27
27 25 25 22 22 20 18 19 14 13 12 14 19 18 20 21 27 29 35 37 37 37 37 36 33 32 32 30 28 22 22 21 19 22 25 26 25 27 26 26 27 27 28 28
23 24 22 21 22 19 17 18 18 17 17 20 22 21 22 24 29 30 33 36 37 36 36 35 33 31 28 26 23 23 22 19 19 24 24 23 24 24 25 26 27 28 28 29
24 20 12 13 17 16 19 18 16 17 17 17 19 25 28 29 30 32 34 36 37 36 35 32 30 26 25 24 25 23 19 17 19 22 23 23 23 24 25 26 27 29 29 29
26 16 15 15 12 16 16 15 15 20 17 19 28 31 29 31 32 33 36 37 37 36 32 28 24 23 27 24 21 18 17 17 19 21 22 23 23 24 25 26 28 29 28 29
26 24 21 21 23 26 24 15 19 21 23 24 29 25 26 34 34 36 37 37 36 32 28 24 24 24 25 24 19 17 16 20 20 22 22 23 24 25 25 25 26 29 29 27
30 30 27 23 23 28 18 23 25 27 25 27 25 34 36 35 37 37 37 35 32 27 24 22 26 30 26 18 14 17 21 22 22 22 22 23 25 25 24 25 26 29 30 28
34 32 22 22 26 22 32 27 30 29 30 34 34 38 37 37 37 36 34 28 25 23 23 29 27 21 15 12 17 20 23 22 22 22 23 24 25 25 25 25 26 28 29 30
28 26 28 25 25 30 31 31 31 33 34 34 36 36 37 37 35 31 25 23 24 27 30 27 23 22 20 19 21 21 22 22 22 24 25 25 23 23 24 25 25 27 26 24
26 22 24 27 30 33 35 36 36 37 37 37 36 37 37 33 28 24 25 29 32 31 28 22 19 21 22 24 24 23 23 23 24 25 24 25 24 23 24 25 25 25 25 24
27 24 27 32 37 39 39 39 39 39 39 39 39 37 32 27 26 31 33 31 26 22 23 25 20 21 23 22 24 23 23 24 25 25 25 25 24 24 25 26 26 25 26 24
30 35 36 35 39 39 39 38 38 36 33 32 32 28 30 34 34 33 28 29 31 27 23 20 20 21 21 21 22 23 24 25 25 26 26 25 25 25 26 25 25 24 24 24
36 39 39 39 35 34 34 34 35 35 34 34 35 34 33 32 28 29 29 26 24 22 21 21 21 21 21 23 25 27 27 26 26 26 25 26 27 27 27 28 27 26 26 25
37 38 36 35 35 35 34 35 35 34 34 33 32 32 32 31 30 27 26 24 22 20 21 21 22 22 23 23 25 26 27 27 27 27 28 28 28 29 29 28 28 29 28 28
35 35 35 35 34 33 35 33 32 33 34 34 33 30 26 24 22 21 21 22 23 22 22 21 21 22 22 25 26 27 27 27 28 30 30 29 29 30 29 29 28 28 27 27
35 35 34 33 32 33 33 34 34 32 29 28 29 27 23 21 21 21 20 23 26 25 25 27 28 28 29 28 26 26 27 27 28 30 30 29 29 28 29 28 28 28 29 26
34 33 34 34 33 33 32 29 29 30 26 25 25 27 26 26 25 23 25 28 32 32 32 32 31 29 29 29 28 28 29 28 29 31 32 32 29 27 28 28 27 28 29 31
34 36 34 32 31 29 29 26 24 24 26 28 29 30 29 29 28 29 29 32 32 31 31 30 30 30 29 28 27 29 30 30 31 32 32 31 31 30 28 28 27 27 28 30
33 31 30 29 25 23 23 25 26 28 30 30 29 29 31 31 30 28 28 29 29 27 25 27 28 29 28 28 29 29 30 32 31 31 31 31 29 27 28 30 29 28 29 29
27 24 23 25 27 27 27 28 30 28 29 29 29 29 26 26 26 28 28 26 25 23 24 24 27 26 25 25 27 30 32 31 30 30 31 28 28 28 29 29 29 29 29 29
23 25 26 26 28 30 30 29 28 26 24 25 24 23 24 24 25 24 22 19 18 23 23 24 25 25 25 26 27 29 32 31 30 30 29 28 28 28 28 29 29 28 28 29
25 28 30 30 29 28 25 22 24 24 23 22 23 22 21 17 18 19 19 17 18 20 23 22 23 25 27 29 28 29 30 30 30 28 26 25 24 24 25 25 25 26 27 28
28 29 30 29 27 23 21 18 21 22 20 19 18 17 17 17 15 15 16 16 17 19 21 21 26 26 24 27 28 28 28 27 26 25 24 23 20 20 20 20 20 21 22 24
28 28 26 23 20 17 14 13 11 12 15 13 14 17 15 14 15 15 16 17 17 19 21 25 20 17 20 24 23 22 23 23 21 20 20 19 19 18 18 18 17 18 18 20
24 22 20 18 16 13 11 8 7 9 9 10 13 13 14 14 14 14 16 17 15 17 17 18 15 13 18 17 17 16 18 18 16 16 16 16 16 15 16 15 15 15 16 17
20 19 16 13 11 9 9 8 10 11 11 12 12 12 13 13 13 14 13 15 14 14 14 15 14 12 12 12 13 13 13 13 12 11 11 12 12 12 11 10 10 12 13 15
15 14 13 12 9 8 10 11 12 11 11 13 11 12 11 12 13 13 12 13 13 13 13 13 12 10 9 9 10 10 9 9 9 8 8 8 9 8 7 7 7 8 9 11

GFSNGP_sfc_30mbdewp_048.txt.gz
Dewpoint
16 18 19 22 22 19 18 20 21 23 17 14 11 18 17 21 24 25 27 34 36 40 42 42 41 40 39 37 37 35 33 29 26 23 26 28 28 29 29 30 29 30 29 30
26 26 23 23 21 19 19 18 16 18 17 16 19 23 21 21 20 21 26 32 37 39 40 40 39 38 35 35 34 33 26 25 25 22 24 27 28 28 28 29 29 29 30 30
28 26 23 20 21 21 19 18 18 17 20 19 18 19 21 23 23 27 28 30 36 38 38 39 37 36 34 33 30 25 27 28 23 22 25 26 26 25 26 27 29 29 30 30
28 22 17 19 17 14 16 15 13 13 16 16 25 26 25 26 28 29 31 32 35 38 38 37 35 34 32 28 26 29 28 22 19 21 24 25 25 25 26 28 28 30 29 30
27 22 20 19 15 16 17 17 20 19 20 20 26 27 31 30 30 30 32 35 37 38 37 34 32 28 26 28 28 25 19 18 19 22 23 23 24 25 27 28 28 29 29 29
27 25 20 24 22 22 21 15 21 20 21 23 24 26 34 33 32 31 34 37 37 34 32 29 25 27 26 25 23 22 18 21 23 24 23 23 24 26 28 27 26 28 29 31
31 29 31 25 24 26 18 28 28 28 26 29 29 37 37 36 36 36 36 36 32 30 27 28 31 29 27 26 21 20 22 26 26 25 23 23 25 26 27 27 28 28 30 31
35 34 27 23 24 24 33 29 30 30 31 33 35 36 38 36 37 36 31 28 27 25 29 29 25 24 21 24 26 26 25 25 25 24 24 24 27 27 26 26 26 27 28 30
34 32 29 24 27 30 31 32 34 34 34 34 35 34 36 36 35 29 25 27 30 30 29 30 28 25 20 22 22 25 26 25 23 24 25 26 26 26 25 25 26 26 27 28
28 23 26 28 34 38 37 37 37 38 39 38 38 38 37 34 26 26 31 32 32 30 28 25 23 28 29 26 26 24 24 24 25 25 26 26 26 26 25 26 26 27 27 27
27 26 31 36 40 40 39 40 39 38 35 36 38 35 29 31 33 32 30 28 27 28 30 30 30 26 22 22 23 24 24 25 25 26 27 28 28 26 25 27 27 27 27 27
33 38 38 38 36 37 36 35 34 32 33 33 33 33 33 33 31 27 29 31 33 32 28 23 20 20 21 22 21 23 24 26 27 28 29 28 27 26 28 27 28 27 26 26
38 39 39 36 35 36 36 36 36 35 35 33 33 32 31 30 32 33 34 32 26 24 21 20 20 21 21 22 24 25 27 28 29 28 29 29 28 28 26 29 30 30 28 27
37 38 36 36 35 35 35 35 34 33 32 32 32 32 32 31 31 28 25 23 21 20 20 21 21 22 24 24 25 27 28 28 28 29 29 30 29 28 28 28 27 28 30 29
35 37 36 35 35 34 34 33 32 33 33 32 31 28 25 23 20 19 19 21 24 23 22 24 26 26 28 30 29 29 28 29 29 30 30 30 31 29 28 29 29 29 29 29
35 35 34 33 33 33 33 33 32 30 29 28 26 25 22 22 22 22 23 30 29 29 30 30 30 31 31 30 29 28 27 28 29 29 30 31 33 31 31 31 28 28 28 27
34 33 33 32 32 32 31 31 28 25 25 27 28 29 29 29 26 28 29 31 32 31 32 31 31 31 31 30 29 28 28 29 29 29 29 32 32 31 31 31 30 28 27 28
35 34 33 33 32 31 26 26 27 29 29 30 30 30 30 29 30 28 27 28 27 27 27 27 26 27 26 25 26 26 26 27 28 29 31 31 31 30 31 29 28 27 28 29
33 31 31 29 26 25 26 28 30 30 30 29 29 28 28 28 24 25 28 25 24 23 24 24 24 24 24 26 26 26 27 28 28 28 31 30 29 30 29 28 27 27 29 30
29 26 26 28 30 29 30 31 30 29 27 24 24 23 22 20 23 25 22 23 22 22 20 21 22 20 20 22 25 25 26 27 27 27 30 29 30 29 29 28 28 29 29 30
26 27 29 29 29 28 28 27 25 22 23 23 22 22 20 20 21 20 19 17 19 19 19 19 19 23 24 21 21 24 27 27 27 27 27 29 28 27 25 25 26 26 26 27
28 30 30 30 28 25 23 23 24 23 22 19 19 18 18 16 17 17 17 18 18 19 19 18 22 15 16 19 22 23 24 24 24 26 25 25 24 22 22 21 21 20 21 21
30 30 30 29 26 22 19 17 23 19 17 15 18 17 16 16 16 16 16 17 18 17 16 19 16 12 13 19 18 19 18 20 19 18 20 20 21 20 20 20 18 18 18 18
30 29 26 23 20 17 15 12 10 15 13 13 16 17 15 16 16 17 17 16 15 16 16 17 16 13 13 14 14 14 14 16 13 14 14 16 16 16 16 16 14 15 15 16
25 23 21 19 17 14 11 9 10 12 12 13 15 14 14 16 16 16 16 16 15 15 15 15 15 12 12 11 11 11 11 12 11 10 10 11 11 12 12 11 11 10 11 12
23 20 16 13 11 11 11 11 13 14 12 14 14 14 16 17 16 15 16 15 14 14 13 13 13 13 12 10 10 10 9 9 8 8 8 8 8 9 8 8 9 9 9 9
17 17 15 14 11 11 13 14 14 13 13 15 12 13 15 15 15 13 12 13 13 13 12 11 11 11 11 9 8 8 7 8 6 8 6 6 6 6 6 6 7 8 7 8

GFSNGP_sfc_30mbdewp_054.txt.gz
Dewpoint
23 23 26 24 23 24 22 23 20 21 23 22 23 23 23 25 26 37 43 44 43 42 44 46 47 43 42 42 41 42 39 36 37 32 31 32 32 30 30 30 29 30 30 32
22 27 25 24 23 23 23 22 22 22 21 24 23 23 23 23 27 29 35 37 40 45 47 47 45 42 42 41 39 37 31 29 30 32 32 33 31 28 28 29 29 30 30 31
21 25 24 22 22 22 22 23 22 19 23 26 26 27 29 31 30 32 36 42 45 46 46 45 42 42 40 36 32 29 28 29 31 31 29 28 27 28 27 27 29 29 31 31
24 24 20 24 26 24 21 22 24 24 27 29 30 32 32 31 34 35 37 39 40 39 37 37 36 33 32 32 31 28 27 28 27 27 28 29 31 28 29 28 27 29 31 30
26 24 25 24 20 16 17 22 25 26 30 33 34 34 35 37 38 37 35 31 30 30 30 30 30 30 27 24 25 26 27 27 30 34 36 33 29 28 28 27 28 29 30 30
30 24 22 22 23 22 23 20 29 31 31 29 30 24 34 34 31 30 29 29 28 27 27 27 27 27 26 25 26 26 26 29 36 35 30 28 28 28 28 28 28 28 27 29
26 24 20 26 26 25 11 15 32 34 35 34 32 36 32 29 30 29 27 26 25 25 25 26 26 26 26 26 25 28 34 35 31 30 29 28 26 26 27 27 27 27 27 28
29 23 23 32 26 20 27 35 35 36 36 37 39 32 30 29 28 28 27 26 25 24 24 26 26 25 26 27 28 29 27 27 26 26 26 26 26 26 27 27 27 26 26 26
30 28 34 36 33 36 37 36 38 38 39 39 33 29 30 30 30 29 29 28 27 25 25 28 29 28 27 28 27 26 26 25 25 26 25 26 26 26 26 26 25 25 25 25
33 36 38 38 40 40 39 36 35 36 38 37 29 31 31 30 29 29 28 28 28 28 29 29 30 30 29 29 28 26 25 24 25 24 25 26 26 27 27 27 26 26 26 25
38 38 38 39 39 36 35 35 34 34 34 32 32 31 29 29 28 29 31 31 31 30 29 28 27 25 23 22 23 23 23 24 24 25 26 26 26 27 28 28 28 27 26 25
32 38 36 37 36 36 35 34 34 33 32 32 31 29 28 29 31 32 31 31 29 27 22 22 23 24 26 28 27 26 26 26 26 26 27 27 27 27 29 29 28 28 28 27
37 38 37 36 36 36 34 33 33 31 31 30 31 31 33 33 32 31 31 26 24 25 26 26 25 27 30 31 31 30 29 29 29 28 28 28 28 28 28 29 30 30 30 30
36 36 35 35 34 34 33 32 32 31 32 32 32 32 31 30 28 28 27 27 26 23 25 27 29 29 29 29 28 27 25 26 27 27 27 26 27 27 28 28 27 27 30 30
36 37 35 34 33 33 33 32 31 31 29 27 27 26 27 29 29 27 24 22 22 26 27 27 26 23 24 25 24 22 23 24 25 26 26 26 26 26 26 26 25 27 29 29
35 34 33 32 32 33 32 32 30 26 27 27 28 28 29 28 25 23 23 25 24 24 23 19 19 20 22 21 22 23 23 22 21 21 22 23 24 25 24 24 24 23 28 29
33 32 32 32 33 32 31 29 28 27 27 26 27 27 21 20 21 21 23 24 20 20 21 18 18 21 22 21 15 15 16 18 20 21 22 23 24 25 24 23 23 26 28 29
34 33 33 33 32 30 29 29 28 28 27 27 23 18 19 19 19 21 22 18 18 19 18 18 20 15 13 13 17 18 19 19 19 19 21 22 22 21 22 22 24 26 27 26
34 33 31 30 30 29 28 27 27 27 25 22 17 19 20 19 20 19 19 17 17 15 14 18 15 10 10 14 17 17 16 15 16 14 15 15 16 17 18 20 19 19 19 19
32 30 30 30 29 27 24 24 24 21 19 15 17 17 16 16 15 17 18 17 13 13 17 14 11 9 9 12 13 13 12 13 10 11 11 11 13 13 14 15 15 15 15 15
29 29 29 28 28 26 22 21 20 17 15 14 15 15 15 15 16 16 16 16 14 14 16 14 11 9 9 10 11 10 9 10 7 8 7 8 9 8 11 9 10 10 11 12
28 27 26 25 24 23 22 19 19 17 15 14 13 14 16 16 16 16 14 14 14 13 16 14 12 9 8 8 10 8 8 8 5 6 5 5 5 5 7 6 6 7 8 9
26 25 24 23 20 20 19 16 16 15 14 14 13 14 16 17 15 12 12 15 15 13 15 14 11 10 7 7 7 7 6 6 3 4 4 4 3 4 4 3 4 5 5 7
27 25 22 20 21 19 15 15 16 16 14 14 13 14 15 13 14 16 16 14 12 11 11 11 10 10 7 6 5 5 4 4 -0 1 4 2 -0 2 1 1 2 3 4 5
25 23 19 19 14 15 18 17 16 18 17 14 11 14 17 14 12 13 11 11 12 10 8 8 7 5 3 6 3 4 4 2 -2 -0 2 -2 -2 -1 -2 -1 -0 0 2 2
21 19 17 16 15 17 17 15 14 15 14 11 8 10 15 14 11 10 7 7 10 8 7 7 5 3 0 5 5 4 3 -2 -2 0 -1 -4 -4 -3 -4 -3 -3 -1 -1 0
16 16 16 16 16 17 15 13 12 14 12 8 7 9 14 12 8 7 4 3 7 7 5 5 3 4 1 2 3 4 3 -1 -1 -0 -4 -6 -6 -6 -6 -5 -4 -2 -2 -2

GFSNGP_sfc_30mbdewp_060.txt.gz
Dewpoint
22 22 23 21 22 25 25 23 20 21 21 22 24 24 24 24 25 28 31 42 45 46 48 49 48 46 44 43 43 44 44 44 44 44 44 42 39 39 40 39 37 33 32 32
22 26 26 24 24 25 25 24 24 23 22 25 25 27 27 28 29 36 39 41 44 43 45 47 46 45 44 44 44 44 43 43 43 43 39 38 38 37 35 32 32 34 34 32
21 25 25 22 24 24 24 24 23 21 23 25 26 28 31 34 37 40 42 44 45 46 45 45 44 44 44 43 41 40 39 38 37 36 35 34 32 34 37 38 37 35 32 31
20 23 19 22 27 26 25 24 24 23 24 26 30 35 35 36 38 37 38 39 40 40 39 37 37 35 35 36 36 34 33 32 31 31 35 38 38 38 39 36 32 29 28 28
20 21 21 21 24 23 22 17 25 24 29 32 35 35 33 31 31 31 31 31 31 31 32 32 31 31 31 31 30 31 35 36 37 37 37 37 38 37 32 29 28 27 27 28
24 19 17 21 25 23 21 17 26 29 31 32 33 23 30 30 29 28 28 28 28 27 27 27 28 28 27 28 31 34 37 37 37 38 38 34 31 29 28 27 27 27 27 27
24 23 25 29 25 22 18 19 26 30 32 33 28 28 31 27 26 26 26 26 26 26 26 26 26 26 28 30 33 35 36 36 33 30 28 28 26 26 26 26 26 26 26 27
26 25 24 28 24 20 22 28 31 32 33 33 32 30 28 26 25 25 25 25 26 27 27 27 28 28 29 29 29 28 27 26 25 25 26 26 25 25 25 26 25 25 25 25
29 28 32 31 27 29 30 30 34 33 36 33 31 29 28 25 25 25 26 28 29 28 28 29 28 29 28 28 27 27 26 25 26 26 27 27 27 27 27 26 26 26 26 26
30 32 34 37 38 37 37 35 37 38 34 32 30 29 27 26 26 26 28 28 28 29 26 25 28 29 29 28 27 27 27 27 25 24 25 25 25 26 25 25 25 26 26 26
32 35 38 38 38 36 36 37 37 34 33 32 30 28 27 27 28 29 29 29 26 24 25 28 28 28 28 27 25 24 23 24 24 25 25 24 24 25 25 26 26 26 26 26
30 32 31 33 37 36 36 35 35 33 32 31 30 28 28 30 30 29 25 24 24 25 28 27 23 23 24 25 22 20 21 23 23 22 22 21 21 20 21 22 23 24 24 24
33 38 37 36 35 35 34 33 33 32 31 29 29 30 30 30 27 26 25 24 26 28 25 20 19 20 22 22 22 22 21 20 20 19 19 20 21 21 19 20 21 22 21 21
37 36 35 35 34 33 32 31 31 30 30 31 31 30 27 26 25 23 24 27 27 23 20 18 19 21 21 19 20 19 17 18 18 19 20 19 19 19 20 20 18 17 19 18
35 35 35 33 32 31 31 31 30 30 30 29 28 27 25 22 21 24 26 21 19 18 18 19 19 19 16 15 14 16 16 17 18 18 18 17 17 15 16 17 16 17 15 15
33 33 32 31 31 31 30 29 29 28 28 28 26 22 21 23 24 25 24 22 17 17 18 17 14 12 13 15 15 15 15 16 16 15 14 15 13 14 14 13 14 13 13 12
32 32 31 30 30 29 28 28 28 28 28 26 22 21 23 22 21 20 19 18 19 19 16 14 11 11 11 13 14 13 13 13 11 12 11 10 10 11 10 11 9 9 9 9
35 34 33 31 29 27 27 28 28 28 26 23 21 21 22 21 20 20 18 17 18 17 14 12 10 9 9 11 11 10 11 9 8 9 8 7 7 7 6 8 5 5 6 6
34 33 32 30 29 29 29 28 27 23 22 20 18 19 21 21 19 18 15 13 14 15 13 10 10 7 6 10 7 9 8 4 5 5 4 4 4 3 2 5 3 3 4 3
33 33 32 31 30 29 27 24 21 20 20 18 19 18 19 19 17 14 13 12 13 15 13 10 9 7 6 7 7 7 5 2 2 3 2 1 -0 -2 -1 2 0 -0 1 1
31 30 29 28 26 25 24 21 18 17 18 18 16 16 17 17 15 14 14 13 12 16 13 11 10 9 7 8 8 6 4 1 -1 -0 0 -1 -3 -4 -5 -3 -3 -3 -2 -1
27 26 26 25 24 21 18 17 18 18 16 15 15 16 16 16 15 13 13 13 13 15 13 13 11 7 7 7 7 4 4 1 -3 -3 -1 -2 -5 -6 -7 -5 -5 -6 -4 -3
27 26 25 23 20 17 16 16 16 15 14 14 14 15 15 15 14 13 13 15 13 13 14 11 9 8 5 4 3 2 2 0 -4 -4 -3 -4 -6 -7 -8 -8 -8 -7 -7 -6
26 25 21 19 17 14 13 14 14 14 15 15 15 15 15 13 14 15 14 12 10 10 9 8 7 3 1 3 1 1 -0 -1 -5 -5 -4 -5 -8 -9 -10 -10 -10 -9 -9 -8
24 21 17 16 16 16 16 15 15 15 15 15 16 16 15 13 11 12 10 10 10 8 7 5 5 1 -3 0 0 0 -1 -2 -4 -5 -5 -7 -9 -12 -12 -12 -12 -11 -10 -10
20 20 19 19 18 18 18 17 16 14 10 10 12 12 11 11 9 7 7 7 7 6 5 4 3 2 -0 -1 -1 -1 -2 -1 -2 -4 -6 -8 -11 -13 -14 -13 -13 -13 -12 -11
19 19 18 17 17 16 16 16 15 13 10 8 9 11 11 9 7 4 2 2 3 3 2 1 1 0 -0 -2 -2 -2 -2 -3 -5 -6 -8 -10 -13 -14 -15 -15 -15 -14 -13 -12

GFSNGP_sfc_30mbdewp_063.txt.gz
Dewpoint
19 18 23 22 23 28 26 26 23 24 23 24 24 24 25 26 26 27 31 34 45 47 50 51 51 49 48 48 47 47 46 45 45 45 45 44 43 42 41 41 41 41 38 35
21 25 23 21 22 24 27 26 25 24 23 25 26 27 26 30 32 39 42 44 44 45 48 49 47 46 45 46 46 46 45 44 44 43 42 41 41 41 40 36 34 36 36 35
20 25 25 23 24 24 25 26 25 23 25 26 26 27 31 36 40 41 42 43 44 44 46 46 45 45 45 44 44 43 43 42 40 39 39 38 36 35 36 39 40 40 38 36
22 24 20 24 27 26 25 25 26 24 24 25 27 34 34 36 39 38 39 40 40 40 40 40 40 41 41 39 39 38 36 35 35 35 37 39 40 39 39 40 38 35 32 31
22 22 23 21 23 24 22 18 23 24 25 29 35 34 33 31 33 34 34 34 34 35 35 36 37 37 36 34 33 34 35 37 38 38 38 38 38 39 36 32 31 29 29 29
23 20 19 22 23 26 22 17 22 25 27 33 34 29 31 30 30 30 30 31 31 31 32 32 32 33 34 34 35 36 37 37 38 40 39 36 32 30 30 28 27 28 27 28
23 22 23 26 27 24 19 20 23 28 31 35 30 31 32 29 28 29 29 28 29 29 28 28 30 33 34 35 35 36 36 31 29 28 27 27 27 27 27 27 28 28 29 29
25 23 22 30 23 22 25 26 27 32 35 35 32 30 29 28 27 27 27 27 27 27 27 29 30 30 28 28 27 27 26 26 26 27 27 28 28 28 28 27 27 26 27 26
27 26 32 28 27 27 28 27 31 33 36 33 31 29 27 26 26 26 27 26 27 27 28 28 27 28 27 27 26 27 27 27 26 25 23 22 21 19 18 18 19 20 21 22
30 31 32 34 36 37 36 32 35 37 35 33 31 28 26 26 26 27 27 28 26 26 26 27 28 28 28 28 27 25 23 21 20 18 17 17 16 16 17 19 20 20 20 20
32 33 36 37 38 38 36 38 37 35 34 33 30 27 26 26 27 28 28 25 26 27 26 26 25 23 21 21 20 19 19 18 17 17 16 15 16 17 18 20 21 20 20 20
29 32 30 30 36 38 36 37 35 33 32 31 29 28 27 28 29 27 25 25 27 26 23 21 21 20 19 19 18 16 15 15 16 16 16 16 16 16 20 20 20 20 18 19
34 37 36 36 36 36 36 35 34 32 31 30 29 29 29 29 26 25 25 27 26 21 19 19 19 17 17 18 15 14 13 14 14 16 15 16 15 15 13 14 16 16 17 15
37 36 35 35 35 34 33 32 31 30 30 30 30 30 27 26 25 25 26 25 20 18 18 19 17 13 13 12 14 15 15 16 15 16 15 14 13 13 13 13 13 13 13 13
35 35 35 33 32 31 31 31 31 30 30 29 28 27 25 24 25 25 22 19 18 18 18 16 12 12 13 14 13 13 12 13 15 14 14 13 12 12 12 11 11 10 9 9
33 33 33 32 31 31 31 31 30 29 28 27 25 24 24 25 22 20 18 18 17 16 13 14 11 12 12 13 12 10 11 13 11 11 10 9 9 10 9 9 9 8 7 7
33 32 31 31 31 30 30 30 29 28 26 24 23 23 23 22 21 19 18 18 17 16 14 12 10 10 10 11 9 9 10 10 9 8 8 7 7 7 6 7 7 5 5 6
37 34 33 32 30 29 29 29 29 27 24 25 26 24 24 22 18 17 18 18 16 14 11 9 8 8 8 7 7 8 9 6 6 7 6 5 4 4 4 4 4 3 3 3
34 33 32 31 30 29 29 29 28 27 26 25 25 23 22 21 18 17 17 17 16 13 10 10 10 6 7 8 5 7 6 4 4 4 4 3 2 1 1 2 2 1 1 1
31 30 30 30 30 28 27 27 27 25 24 23 22 20 19 19 18 15 15 14 14 14 11 9 7 6 6 7 6 5 4 4 1 2 3 2 1 0 -0 -2 -2 -1 -1 -0
30 29 28 27 26 26 26 26 25 22 20 21 19 19 18 17 15 14 13 12 14 14 11 10 9 8 6 7 6 6 6 4 2 1 1 1 0 -1 -2 -2 -2 -2 -2 -2
27 26 25 25 24 24 24 23 20 19 18 17 18 18 16 16 16 15 15 13 13 15 12 11 10 8 7 7 6 6 5 4 2 0 0 0 -1 -2 -3 -4 -4 -4 -3 -3
26 26 25 23 22 20 19 18 17 17 16 16 17 17 16 15 14 13 12 13 13 14 13 12 9 7 4 7 6 5 4 4 2 0 -0 -0 -1 -2 -4 -5 -6 -5 -5 -4
25 24 22 21 19 15 13 14 15 16 16 16 16 16 15 14 14 15 15 12 11 12 12 10 8 3 1 4 4 4 4 3 3 1 -0 -3 -1 -3 -4 -6 -8 -7 -6 -6
23 22 21 17 16 15 14 15 15 15 16 16 16 16 15 14 14 14 13 11 10 9 9 5 4 2 3 2 3 3 2 2 2 1 -0 -1 -2 -4 -5 -6 -8 -8 -8 -7
20 20 20 20 19 18 17 16 14 12 12 13 13 14 13 13 12 11 10 8 8 6 7 6 5 4 4 3 2 1 1 2 1 0 -2 -2 -3 -5 -6 -8 -10 -10 -9 -8
18 18 17 16 16 16 17 17 15 13 14 14 13 13 12 11 10 9 7 6 5 4 4 4 4 3 3 2 1 1 0 0 -2 -3 -3 -3 -5 -6 -8 -10 -11 -11 -10 -9

GFSNGP_sfc_30mbdewp_069.txt.gz
Dewpoint
17 17 15 15 17 17 19 20 19 19 17 14 17 18 20 24 26 27 25 26 31 37 43 47 52 54 55 52 52 51 49 49 48 47 47 46 45 45 44 44 43 42 41 42
16 17 16 14 13 15 14 13 14 14 14 17 20 18 20 23 26 27 32 35 32 37 46 50 53 54 51 50 49 49 48 47 47 46 45 44 44 44 42 42 42 42 41 41
19 18 18 18 17 16 16 17 17 17 18 19 19 19 21 22 28 32 38 41 41 44 50 51 51 51 50 49 48 47 46 46 45 45 44 42 41 40 39 38 38 38 39 39
25 27 21 22 22 20 18 18 19 20 19 18 19 21 28 31 30 37 40 43 45 47 48 49 49 49 49 47 46 45 44 44 43 42 39 38 37 37 38 39 39 39 39 35
26 25 21 19 23 23 20 18 19 19 19 20 21 28 30 33 35 39 41 43 44 45 46 46 46 46 45 45 44 43 42 41 40 40 38 39 39 39 39 39 38 32 29 27
29 24 22 21 22 26 22 20 22 21 21 22 25 25 19 35 39 40 40 41 42 43 43 43 42 42 41 41 41 40 39 39 38 38 38 39 39 37 33 30 27 24 23 25
30 27 23 21 23 27 23 24 22 23 23 23 25 26 35 37 38 38 38 39 40 41 41 40 41 41 40 39 38 37 37 37 37 36 34 31 30 28 25 25 26 30 30 28
33 30 27 29 28 24 28 28 29 27 26 27 33 37 36 37 36 36 36 37 38 39 39 40 40 39 37 36 37 35 33 32 30 28 26 26 27 26 24 22 21 20 22 21
30 30 32 31 28 30 31 33 31 32 30 31 38 35 35 35 35 35 35 35 36 37 38 38 37 36 34 32 31 31 31 28 26 24 21 20 19 16 13 14 17 19 18 20
31 30 31 33 33 32 34 34 32 35 33 34 38 35 34 33 33 34 34 33 34 35 34 33 32 31 31 30 30 28 26 24 21 19 15 12 9 10 12 17 19 17 18 20
26 27 26 33 37 36 35 36 35 34 33 34 36 34 33 32 32 32 32 32 32 32 31 30 30 29 28 26 25 23 20 17 15 14 12 13 13 15 17 22 21 19 18 17
30 29 32 31 39 41 38 37 38 36 35 36 35 33 32 32 32 31 31 30 30 30 29 27 26 24 23 22 20 17 14 14 17 17 15 10 10 17 18 19 18 18 17 17
33 38 39 40 38 37 38 39 39 38 36 35 34 33 32 31 31 30 30 29 29 27 25 23 20 17 15 15 14 14 14 15 14 14 12 12 11 12 11 19 17 17 17 14
39 39 37 38 37 37 38 38 37 37 36 35 34 32 32 31 29 29 29 29 27 24 21 18 15 13 13 13 13 13 13 15 13 13 13 14 13 14 13 14 16 15 16 12
39 39 38 38 37 36 36 35 35 34 34 33 32 32 31 30 28 29 28 26 23 19 16 14 12 12 13 12 11 11 12 12 15 16 16 14 14 14 14 13 13 13 12 12
37 36 36 37 35 35 35 35 34 33 32 32 32 31 29 29 28 25 23 23 22 18 18 18 13 14 12 9 8 11 12 12 13 12 12 11 11 12 11 12 11 11 12 11
37 37 36 36 35 35 35 35 35 33 32 31 31 30 28 24 24 25 24 24 23 22 22 21 18 13 10 6 6 7 8 10 10 9 9 10 11 11 11 11 11 10 10 11
37 37 36 36 35 35 34 34 33 32 30 27 26 25 25 24 21 21 21 21 20 20 19 15 10 6 5 5 6 8 9 8 8 9 9 11 11 9 10 10 9 9 9 9
36 35 35 34 34 32 30 28 28 28 28 27 25 24 24 23 22 21 21 20 18 17 14 13 11 7 7 10 7 9 10 11 10 8 10 9 10 10 9 10 9 8 8 8
32 31 30 29 29 28 27 28 28 27 27 26 25 23 22 22 21 21 22 21 20 14 11 9 6 6 6 7 9 7 10 11 9 8 10 8 9 10 9 8 7 7 7 7
28 28 28 28 28 29 29 29 28 27 27 26 24 22 21 22 23 21 17 14 12 11 10 10 9 7 6 7 8 10 11 11 10 9 9 9 9 8 8 8 7 6 6 6
29 28 28 28 27 27 28 27 26 25 24 23 22 22 21 20 19 17 18 14 13 13 12 11 11 11 9 9 8 11 9 8 8 9 8 9 8 7 7 7 6 5 4 4
28 27 26 25 24 24 24 24 24 23 23 22 21 19 17 16 15 16 14 14 14 14 13 15 11 10 8 12 12 11 10 8 8 8 8 8 8 7 6 5 4 3 3 3
27 25 23 21 20 18 17 16 17 18 19 19 19 19 17 18 16 15 15 15 14 16 16 14 12 9 8 11 11 9 8 8 8 8 8 8 6 7 5 4 3 2 2 1
24 22 21 19 17 15 14 14 15 15 15 15 16 17 17 18 20 20 18 15 13 16 16 10 9 8 9 9 8 8 7 7 7 5 4 6 5 4 3 3 2 1 0 -0
21 21 20 19 19 18 18 18 18 19 18 18 18 19 18 18 17 16 14 12 12 10 11 10 9 7 8 9 7 6 6 6 5 5 4 2 2 2 2 1 0 -0 -0 -1
19 18 17 17 17 17 17 17 16 15 16 18 16 16 15 15 14 12 12 11 10 10 10 10 8 8 5 5 3 6 5 5 5 3 0 0 0 0 0 -0 -1 -1 -2 -3

GFSNGP_sfc_30mbdewp_072.txt.gz
Dewpoint
19 19 19 19 20 20 19 20 22 26 21 20 19 19 21 22 27 31 32 25 25 30 42 46 50 56 55 54 53 53 51 49 48 47 47 46 46 46 46 45 44 43 42 42
22 19 19 17 19 19 18 17 17 18 18 19 16 16 21 19 20 25 27 35 32 29 45 50 55 53 51 50 50 49 48 47 47 46 46 45 45 44 43 43 42 41 41 42
22 22 18 17 18 16 14 16 16 15 17 18 19 19 20 21 23 25 32 38 39 38 51 54 52 51 49 49 48 47 46 46 46 45 44 44 43 43 42 42 42 40 40 40
26 24 20 21 22 19 18 18 19 18 18 19 19 20 23 28 27 32 37 41 42 49 52 52 51 50 48 47 47 46 46 46 45 44 42 41 40 39 39 38 38 40 40 40
25 25 23 21 22 21 20 21 22 19 20 20 20 26 29 30 32 34 40 43 46 48 49 50 49 49 47 46 46 45 44 43 42 40 39 38 38 38 39 40 41 40 37 30
29 25 23 26 24 25 25 21 23 22 22 23 25 25 27 33 35 40 42 44 46 47 48 48 48 48 46 45 44 43 42 41 40 40 39 39 39 40 40 40 37 28 27 30
31 29 26 26 25 26 22 24 26 26 24 25 24 30 35 37 40 41 41 42 44 44 44 44 44 44 42 42 41 41 40 39 39 39 39 40 39 35 30 27 32 32 30 27
31 28 25 28 27 23 27 31 30 28 28 29 38 38 38 39 39 39 39 40 42 42 41 41 42 41 40 39 39 39 38 38 38 35 31 30 28 27 26 28 26 24 24 23
31 31 35 35 30 34 34 33 35 35 34 34 38 38 38 38 38 38 38 39 40 40 41 41 41 40 38 38 38 36 34 31 28 26 27 26 26 21 18 19 20 23 20 22
26 33 37 35 36 35 34 36 35 34 36 35 39 37 37 37 36 36 37 37 38 39 39 39 38 37 35 34 33 32 30 27 25 21 17 13 14 13 20 22 21 19 20 22
28 27 28 31 31 37 37 37 37 36 35 35 39 38 36 35 35 35 35 35 37 38 37 35 33 32 32 32 31 28 25 21 17 15 16 15 19 19 25 22 21 21 21 20
30 29 31 33 39 39 40 40 39 38 37 36 37 37 35 34 35 35 34 35 35 34 32 30 30 29 28 27 25 21 18 20 22 20 16 14 19 19 21 19 18 17 16 18
31 34 39 41 38 38 38 39 39 39 39 38 36 36 35 34 34 33 33 33 32 31 29 27 25 20 18 20 19 20 18 18 17 17 17 15 14 15 21 19 18 18 18 16
27 39 37 38 38 38 38 37 37 38 37 37 36 35 34 33 32 32 31 31 29 26 23 19 16 15 16 16 16 16 15 18 19 20 19 18 18 17 16 17 18 20 19 17
39 40 39 39 38 36 36 36 35 35 35 35 35 34 32 31 30 30 30 27 24 19 16 14 15 15 16 17 18 20 20 23 23 22 18 15 16 16 16 15 15 15 15 18
38 37 37 37 36 36 35 35 34 34 33 33 33 33 31 29 26 24 24 21 19 18 20 22 21 22 16 18 22 21 16 16 14 14 14 13 13 13 14 14 14 14 15 15
38 37 37 36 36 36 36 36 34 33 34 31 27 27 26 25 23 23 23 23 22 22 22 22 22 21 11 10 10 12 14 14 11 11 12 13 13 14 13 13 13 13 13 14
38 38 38 37 36 35 33 31 30 28 27 27 25 23 22 21 20 20 21 21 21 20 20 20 18 10 10 8 10 12 13 11 11 11 11 13 14 12 12 13 12 12 13 12
35 34 33 32 32 31 29 28 28 27 27 26 24 23 23 22 22 21 21 19 18 17 18 19 13 11 10 13 10 13 13 13 13 11 12 12 13 14 14 14 13 11 11 11
31 30 29 28 28 27 26 27 27 26 26 24 23 22 21 21 22 22 22 20 20 18 14 8 7 7 7 7 10 10 13 13 12 11 12 12 12 14 12 10 13 12 12 11
28 28 27 27 27 28 28 27 26 25 25 23 22 22 22 22 22 21 19 15 12 11 11 11 11 10 9 7 9 13 14 14 12 13 13 13 13 12 12 12 12 11 10 10
28 28 27 27 26 26 26 25 24 23 22 22 22 22 21 20 18 18 17 14 13 14 14 15 12 10 8 10 15 15 14 14 14 13 13 13 13 11 10 10 10 9 9 7
27 26 26 24 24 24 24 24 24 24 23 23 21 20 19 19 21 17 15 15 15 19 16 13 11 10 8 13 15 14 13 12 12 12 11 11 11 10 8 8 9 8 7 7
26 26 25 23 20 19 18 18 18 19 19 18 19 21 22 19 17 17 16 16 16 16 14 12 10 8 8 14 12 12 11 10 10 11 10 5 6 8 8 7 7 8 7 7
24 22 19 18 16 16 16 16 17 18 19 18 18 18 17 18 18 19 17 15 12 15 13 11 11 8 10 11 11 9 9 9 10 8 8 8 5 5 6 6 7 6 5 3
22 22 22 22 21 20 20 20 21 21 18 18 19 19 18 19 18 16 15 14 13 12 13 14 12 11 9 9 6 6 8 7 7 7 6 5 4 4 4 4 3 3 3 2
21 19 17 17 17 18 18 17 16 16 19 17 15 14 15 16 14 13 13 11 12 10 9 10 10 8 9 6 7 7 5 5 6 6 5 4 2 2 2 2 1 0 -1 -1

GFSNGP_sfc_30mbdewp_075.txt.gz
Dewpoint
25 22 23 22 22 22 20 21 24 25 26 27 26 22 23 25 27 27 28 27 30 39 42 52 53 53 52 52 51 51 50 49 48 48 48 48 47 46 46 45 45 44 43 43
24 25 20 20 22 22 21 21 21 21 25 29 25 21 21 22 29 30 29 33 36 41 51 53 52 52 50 50 49 49 48 47 47 47 46 45 45 45 45 44 43 43 42 42
22 25 23 21 20 21 21 22 21 18 19 20 20 20 20 23 23 28 35 36 40 51 54 52 51 50 49 49 48 47 47 46 46 45 45 45 44 44 43 42 42 41 41 41
26 25 19 23 23 22 20 21 20 20 20 20 20 21 26 28 30 36 38 39 51 53 52 50 49 48 48 48 47 46 46 45 45 44 43 43 43 42 42 41 40 39 39 39
24 24 25 25 23 22 20 20 21 20 22 22 22 27 29 31 32 37 41 45 51 52 50 49 48 47 47 47 46 46 45 44 43 42 41 41 41 40 39 38 39 39 40 33
31 26 22 26 28 26 25 20 25 23 22 23 26 23 27 33 39 42 45 48 49 51 50 49 47 47 46 46 45 44 43 42 41 40 40 39 38 38 39 40 40 32 32 30
30 31 31 30 26 28 22 22 24 26 26 25 26 29 32 39 41 43 45 47 48 49 49 48 47 46 45 44 43 42 41 40 40 39 39 38 39 40 39 34 31 29 27 29
31 30 30 32 28 25 28 30 28 30 31 33 34 36 38 41 41 42 43 45 46 45 45 46 46 44 43 42 41 41 40 39 39 39 39 39 36 31 31 31 28 25 24 26
32 31 36 38 31 35 34 34 35 34 37 38 37 37 40 40 40 40 42 43 43 42 42 42 42 41 40 40 40 39 39 38 33 31 29 29 26 24 24 24 24 23 23 25
33 34 35 40 36 37 38 33 35 36 35 39 38 39 39 39 38 39 40 41 41 41 41 40 40 39 38 39 37 34 30 27 23 20 19 19 22 24 23 22 21 21 22 23
31 30 31 33 34 34 35 39 37 38 35 35 39 39 38 38 37 38 38 39 40 40 36 33 34 34 34 34 31 27 23 19 19 20 19 19 24 24 21 20 22 21 21 21
28 28 29 32 35 36 35 41 40 40 37 36 38 38 37 37 37 36 37 38 34 31 30 26 21 21 25 26 24 22 21 21 20 18 21 19 18 22 24 21 17 16 19 19
27 37 41 41 38 38 38 39 38 39 39 38 38 37 36 36 36 35 33 31 29 23 18 17 17 18 21 22 22 21 20 20 21 21 22 21 25 25 22 20 19 19 18 16
28 38 38 39 38 38 37 37 37 37 37 38 37 36 35 34 33 32 29 24 18 17 16 17 18 19 20 20 23 24 25 26 25 25 25 23 22 21 20 20 20 20 20 19
40 40 40 38 36 36 36 36 35 35 34 33 33 32 32 31 29 24 18 17 17 16 16 18 21 23 25 25 24 25 24 25 25 22 20 20 20 19 18 16 16 15 17 20
39 38 38 36 36 36 35 35 34 33 29 27 25 24 22 21 20 20 19 19 19 20 21 22 22 23 25 25 23 21 21 22 22 21 19 18 18 17 17 15 15 15 14 17
37 37 36 36 36 35 32 31 29 28 27 25 24 22 21 21 21 21 22 22 21 21 21 20 20 22 23 23 23 22 21 19 18 18 16 14 15 15 14 14 13 13 13 13
36 38 38 35 33 30 29 28 27 25 24 23 23 23 22 21 20 19 19 19 19 18 19 20 20 20 20 20 18 17 16 14 13 12 13 14 12 12 12 14 14 14 12 11
31 31 31 30 29 28 27 26 25 25 24 23 22 21 21 20 20 19 20 18 17 16 18 20 19 10 9 13 14 15 14 14 13 12 12 13 11 10 15 10 10 12 11 11
29 28 28 27 27 26 25 25 24 23 23 22 21 21 20 20 20 19 19 17 18 17 14 10 9 9 8 9 11 15 14 13 13 14 13 13 13 14 12 13 13 12 11 10
27 27 26 26 25 26 25 24 23 22 23 22 20 20 19 20 19 18 16 13 11 13 12 10 10 10 7 12 16 15 14 13 12 12 11 12 12 11 11 10 9 9 9 8
26 25 24 24 23 23 23 23 22 22 21 21 20 20 19 18 17 15 14 14 16 15 13 12 10 7 8 13 15 13 12 11 10 11 11 10 8 8 8 7 7 7 7 5
24 24 23 23 22 22 23 22 22 21 20 20 19 18 19 19 17 15 14 17 15 13 11 9 6 7 10 12 11 10 8 8 8 8 7 5 5 6 7 6 7 7 6 5
23 23 22 23 22 20 19 20 19 19 19 18 18 19 17 16 15 15 15 14 9 8 8 6 7 8 9 8 6 6 6 7 7 7 6 5 5 4 3 4 4 4 4 3
23 23 22 19 17 17 19 18 17 17 17 16 17 16 16 16 14 14 12 12 14 13 11 12 9 8 6 3 4 5 5 5 6 6 5 4 3 2 2 2 2 2 1 0
21 20 21 21 20 20 20 18 17 17 16 15 15 16 16 15 15 14 12 11 9 9 9 7 7 5 4 4 4 5 3 3 4 4 3 1 0 1 1 0 -1 -1 -2 -3
19 18 17 16 16 15 15 14 15 15 14 13 12 13 12 11 10 10 9 8 6 5 6 5 4 2 2 2 3 0 0 2 2 -0 -2 -3 -1 -0 -2 -3 -4 -5 -4 -4

GFSNGP_sfc_30mbdewp_078.txt.gz
Dewpoint
22 26 27 26 25 22 22 23 20 21 24 25 28 28 27 25 25 28 28 31 35 38 44 51 52 53 53 54 54 54 53 52 51 50 50 50 49 49 48 48 47 46 45 44
28 30 29 28 26 24 22 21 22 23 24 27 27 29 25 24 25 27 27 32 33 36 50 52 52 51 51 51 51 51 50 49 48 48 48 47 47 46 46 45 44 44 43 43
26 29 28 27 28 26 25 24 22 21 23 24 25 24 24 21 27 28 28 33 38 41 50 52 51 51 50 49 49 49 48 48 47 47 46 45 45 45 44 44 43 43 42 42
25 26 25 30 28 26 24 24 23 22 21 22 21 21 22 23 24 29 32 38 48 52 51 50 49 49 49 48 48 47 47 47 46 46 45 44 44 43 43 43 42 42 41 41
25 25 29 28 27 23 22 21 23 21 20 22 23 27 27 30 31 31 38 47 51 51 49 49 48 48 48 47 47 47 46 45 45 44 43 43 42 42 42 41 40 40 39 35
31 24 22 25 28 29 27 22 25 23 22 22 26 22 26 31 36 40 45 51 51 50 49 48 48 47 47 46 46 45 44 44 43 43 42 42 41 40 40 39 39 38 33 30
30 30 31 33 32 28 24 23 26 26 25 26 25 26 27 35 40 45 49 51 50 49 49 48 47 47 45 45 44 43 43 42 42 41 41 40 40 39 39 34 32 32 29 27
33 30 28 36 33 26 28 29 32 31 31 30 31 34 35 39 42 45 47 50 49 49 47 47 46 45 44 43 42 41 41 40 40 40 39 39 38 37 32 29 28 28 27 26
31 31 34 37 39 39 38 35 35 36 37 36 35 36 39 40 43 45 46 45 46 47 45 45 44 43 41 40 40 40 40 39 37 35 35 33 33 31 29 27 25 26 26 24
32 32 35 35 35 36 36 37 37 36 37 38 36 39 40 41 41 43 43 43 42 43 42 41 41 41 40 40 39 34 29 25 24 23 25 25 25 25 25 24 24 25 26 24
33 31 32 32 33 31 36 37 41 40 36 37 38 39 40 39 40 41 41 41 39 37 34 34 37 37 36 33 27 22 22 21 21 22 24 25 24 23 20 24 25 24 24 24
27 28 28 29 28 31 34 36 40 38 37 37 39 39 39 38 39 40 36 32 25 23 23 24 24 24 24 23 22 20 20 22 23 23 23 22 21 21 25 24 21 24 22 20
30 32 32 34 39 39 39 38 38 39 39 38 39 39 38 37 35 32 24 22 20 19 19 20 21 22 24 24 23 23 22 23 24 24 25 25 26 25 24 23 20 20 18 17
31 39 39 38 37 38 37 38 36 34 35 37 37 36 33 30 23 20 19 18 18 18 21 23 24 26 28 28 27 26 26 26 25 25 25 24 24 24 24 23 22 22 23 23
39 40 39 38 36 37 36 35 32 29 28 28 32 29 23 20 18 17 18 19 21 22 23 24 24 24 26 26 25 25 25 24 23 23 23 23 22 22 22 21 20 17 18 20
39 38 37 36 36 35 34 31 29 26 25 23 21 20 20 20 21 21 21 21 21 21 21 21 22 24 25 24 23 22 22 22 22 22 22 21 21 20 17 16 16 15 14 17
37 36 36 35 33 31 29 28 27 25 23 22 21 21 21 21 20 20 20 20 20 19 20 20 20 22 23 23 22 21 21 20 19 16 17 17 15 14 14 14 14 14 13 13
37 36 35 32 30 28 26 25 24 24 23 22 22 21 20 19 18 18 18 18 18 17 18 19 19 18 17 16 15 16 16 16 16 15 15 13 12 12 15 13 12 13 12 14
32 31 30 29 27 26 25 24 24 23 22 21 20 20 19 19 19 18 18 17 16 15 16 11 12 10 12 16 15 16 14 14 15 14 14 13 13 13 13 12 12 11 11 11
27 27 27 26 26 25 23 23 23 22 22 21 20 19 18 18 18 18 17 16 17 15 12 8 7 11 15 15 14 14 13 12 12 11 11 10 10 10 10 10 9 9 8 8
25 25 24 23 23 23 23 23 22 21 21 21 19 18 17 18 17 14 13 12 11 10 9 8 9 13 14 14 12 11 9 9 8 8 7 6 5 6 6 5 5 5 5 5
23 22 22 22 21 21 22 22 22 21 20 20 19 18 15 16 16 16 15 13 11 9 8 9 10 10 10 9 7 7 7 6 6 6 5 4 3 2 3 3 4 4 3 3
22 22 22 21 20 20 20 20 20 19 18 18 19 18 17 16 15 12 10 11 9 7 8 8 7 5 4 5 5 4 4 4 4 3 3 2 2 2 2 1 2 2 1 0
22 22 21 22 22 19 18 19 19 19 19 18 17 15 13 13 13 11 10 8 8 9 8 7 4 4 3 3 2 3 3 3 3 2 2 1 -1 -1 -1 -1 -1 -0 -1 -2
22 22 22 20 19 18 18 18 17 16 15 14 14 14 13 12 10 12 12 11 11 8 6 4 3 2 2 2 1 0 1 0 -0 -1 -2 -2 -3 -4 -4 -4 -5 -5 -5 -5
20 19 20 21 20 19 17 15 14 14 13 12 12 13 13 12 10 8 7 7 6 5 2 0 0 1 0 -2 -2 -0 -1 -1 -3 -4 -4 -4 -5 -4 -4 -5 -6 -7 -8 -8
18 18 16 15 16 16 15 14 12 11 11 10 9 10 9 8 6 5 4 3 2 1 -0 -1 -1 -1 -4 -4 -1 -1 -1 -2 -3 -3 -4 -5 -5 -6 -7 -8 -9 -9 -9 -8

GFSNGP_sfc_30mbdewp_081.txt.gz
Dewpoint
29 23 24 26 26 26 25 24 20 22 24 26 26 27 26 28 27 25 25 32 35 37 41 44 46 48 50 51 52 53 53 54 54 54 54 54 55 54 53 53 51 51 49 47
28 24 22 22 29 29 28 28 23 22 22 26 26 27 27 28 27 25 26 27 35 37 39 45 48 49 51 51 52 53 53 51 50 51 51 50 49 49 49 47 47 46 46 45
26 29 29 27 27 27 26 29 27 22 24 26 26 26 28 27 27 25 27 28 32 36 40 47 50 52 52 51 51 51 49 49 49 48 48 47 47 46 46 45 45 44 43 43
28 27 24 29 31 30 28 28 29 25 24 25 25 27 27 26 26 26 28 29 35 40 49 50 51 50 49 49 50 49 49 48 48 47 46 46 45 45 44 43 43 43 43 43
29 25 26 28 31 30 29 28 29 25 24 22 23 25 24 26 24 24 29 32 44 49 50 50 49 49 49 48 48 48 47 47 46 46 44 44 43 43 43 42 42 41 40 39
31 28 23 26 28 30 29 28 28 27 26 23 26 21 21 28 33 34 40 47 49 49 48 48 48 48 48 47 47 46 46 45 44 44 44 43 42 42 42 41 40 36 33 32
30 29 30 31 35 35 30 29 30 28 27 26 25 25 26 32 38 44 49 49 49 49 48 47 47 47 47 46 46 45 44 43 43 43 43 42 41 40 38 36 34 31 28 28
31 29 27 36 36 29 34 32 31 29 28 28 28 29 28 34 42 48 49 49 49 48 47 47 46 45 45 43 43 42 42 41 41 41 40 40 37 35 34 33 31 28 26 25
30 32 36 37 36 40 39 37 37 37 37 35 33 35 39 41 46 48 49 48 48 47 46 45 45 44 42 41 41 41 40 36 34 33 34 35 34 31 30 30 29 27 25 24
31 30 34 36 37 38 38 37 37 39 38 38 37 40 41 43 45 45 45 46 45 45 43 42 41 41 40 40 35 31 29 28 28 28 27 26 26 27 27 27 28 27 25 24
34 33 33 32 34 35 34 39 38 39 38 37 40 40 41 42 43 42 41 39 38 37 37 37 37 35 32 28 27 25 25 25 25 24 22 22 23 21 23 26 27 26 26 24
28 29 30 28 29 33 34 35 38 40 36 39 40 40 40 40 39 34 30 29 28 27 26 25 24 24 23 23 23 23 23 24 25 24 23 22 22 24 26 24 24 24 23 22
31 32 34 34 37 39 38 39 39 39 39 38 40 39 38 31 26 24 23 23 23 23 24 25 25 26 26 26 25 25 25 26 26 26 26 26 26 26 24 25 27 27 26 25
37 35 34 39 37 40 37 34 33 35 35 35 33 30 26 24 23 22 22 23 24 24 25 26 26 27 28 27 27 27 26 26 25 25 24 24 24 24 23 22 21 23 25 26
38 37 35 39 38 37 34 32 30 26 24 23 23 22 21 20 21 21 23 23 24 24 24 24 24 24 26 26 25 24 23 23 23 23 23 22 22 21 21 20 20 19 18 19
36 38 38 37 36 33 31 29 26 23 22 21 21 21 21 21 21 21 22 22 21 21 21 21 21 23 23 23 22 21 22 22 22 21 20 19 18 16 15 15 15 15 14 16
37 37 36 35 33 30 28 26 24 22 22 22 21 20 20 20 20 19 19 19 19 19 20 20 20 22 22 21 20 18 16 16 16 15 15 14 14 14 15 13 13 13 13 14
34 35 34 31 28 26 24 24 23 22 21 21 20 20 19 18 17 17 17 17 16 16 17 18 19 17 16 16 15 15 16 15 15 15 14 13 13 13 12 11 11 11 11 12
30 29 28 27 26 25 24 23 22 22 21 20 19 18 18 17 17 17 17 15 14 12 14 16 17 16 15 15 14 13 13 12 12 11 10 9 8 9 9 8 8 8 8 8
27 26 26 25 24 23 22 22 22 21 21 20 18 17 16 16 16 15 14 12 12 10 12 14 14 13 12 11 10 10 9 8 8 6 5 5 4 4 3 3 4 4 4 5
24 24 23 23 22 22 22 21 20 20 20 19 17 16 15 16 15 14 11 9 9 11 12 12 12 10 9 8 8 7 6 5 5 3 2 0 -0 0 0 0 0 1 1 0
22 22 21 21 20 20 21 21 20 18 17 17 17 16 14 13 12 11 11 8 9 10 9 7 5 5 6 6 5 4 3 2 1 1 0 -0 -1 -1 -2 -2 -2 -2 -2 -2
21 21 20 19 18 19 19 19 19 18 17 17 17 16 15 14 12 8 6 7 8 6 5 5 4 3 3 2 1 1 1 1 -0 -1 -2 -3 -3 -3 -4 -5 -4 -4 -5 -5
20 20 20 20 20 18 16 17 17 16 15 15 15 14 11 9 9 9 9 8 7 5 4 3 2 1 0 -0 -0 -1 -1 -2 -3 -4 -4 -4 -6 -6 -6 -7 -7 -7 -7 -8
21 20 19 18 17 16 16 16 15 15 14 13 12 12 11 10 8 10 9 7 5 2 1 1 1 -2 -2 -2 -2 -2 -3 -5 -6 -5 -6 -7 -6 -6 -7 -7 -8 -10 -10 -11
19 19 19 19 17 17 16 15 12 12 11 10 10 10 9 9 8 7 5 4 1 0 -0 -1 -5 -5 -3 -3 -3 -4 -4 -4 -4 -5 -6 -7 -7 -8 -9 -10 -11 -12 -12 -12
17 17 16 15 15 15 14 12 11 10 9 8 7 7 6 5 4 3 1 -1 -1 -2 -3 -5 -5 -3 -3 -3 -3 -4 -4 -5 -6 -6 -9 -9 -9 -11 -12 -13 -14 -14 -14 -13

GFSNGP_sfc_30mbdewp_084.txt.gz
Dewpoint
32 35 35 33 29 21 21 22 21 22 23 25 26 26 27 28 29 28 25 30 37 42 44 46 48 49 50 50 50 49 49 49 50 51 53 54 54 55 55 55 55 56 55 53
28 27 31 30 29 24 25 27 27 25 24 26 27 27 27 27 28 28 27 25 31 35 41 44 46 47 49 50 51 51 51 51 52 53 53 53 53 52 53 52 51 51 50 49
22 27 30 27 24 26 27 29 27 24 26 26 25 26 27 27 27 27 28 28 27 32 35 39 45 48 49 50 52 52 51 51 51 51 51 50 50 50 49 48 47 46 45 45
26 29 24 29 28 26 26 26 29 29 28 28 27 27 28 28 27 27 28 28 28 33 42 48 50 50 50 51 51 50 49 49 49 49 49 48 47 47 45 45 44 43 43 43
24 25 30 30 30 29 28 26 27 27 29 29 28 25 24 26 28 29 28 29 31 40 47 49 49 49 50 49 49 49 48 48 48 47 46 45 44 43 43 43 42 41 40 40
29 25 21 26 31 36 32 26 31 31 30 29 27 23 22 24 28 26 29 39 44 49 50 49 49 49 49 48 48 46 46 45 45 45 44 43 43 42 42 40 37 35 34 34
28 27 30 34 39 39 27 27 34 33 31 29 27 27 27 29 39 45 47 47 48 48 47 47 48 48 47 47 45 44 44 44 43 43 43 42 41 40 38 35 32 30 29 28
30 28 24 37 37 35 38 38 39 38 38 35 33 32 32 36 47 48 47 47 47 46 46 47 47 46 45 43 42 42 42 41 40 40 39 38 37 36 34 32 29 28 26 25
28 29 32 34 35 35 38 42 39 38 38 40 37 36 41 44 48 48 47 47 46 45 45 45 44 43 41 41 40 37 36 35 34 33 34 34 34 33 32 31 28 27 26 24
31 27 31 30 30 34 38 39 41 35 38 40 39 40 43 45 46 46 46 44 45 44 41 41 41 41 41 39 36 35 33 31 29 28 27 26 27 29 29 29 28 27 26 24
28 32 33 34 35 34 34 37 38 36 39 41 43 42 43 42 39 37 37 38 39 38 37 35 33 31 31 30 29 28 27 25 24 23 23 23 25 25 27 28 29 27 26 25
23 26 31 29 31 35 36 36 39 41 41 41 41 41 35 32 31 31 30 29 28 26 25 25 25 25 25 26 26 26 25 25 25 25 26 26 25 25 27 27 26 27 26 26
29 32 33 33 34 38 39 36 37 37 39 40 40 35 31 27 26 26 26 27 27 27 26 26 25 25 26 26 26 26 26 27 27 27 26 26 26 25 23 26 27 27 26 25
32 36 33 29 33 38 35 35 34 30 28 28 28 27 26 26 26 26 26 26 26 26 26 27 26 26 27 27 26 25 24 24 23 23 22 22 22 22 22 21 20 20 23 23
36 38 36 37 38 34 33 31 27 25 24 23 24 24 25 25 25 25 25 26 25 25 24 23 22 23 25 24 24 23 22 22 21 20 20 19 18 17 17 17 17 16 17 17
35 35 37 38 35 32 30 27 25 23 22 22 22 23 22 22 22 21 22 22 20 19 20 20 20 22 23 22 21 20 19 19 17 16 15 14 15 14 14 14 13 13 12 12
34 34 36 35 32 29 27 25 23 22 22 21 21 21 20 19 18 17 18 18 18 18 19 19 19 20 20 18 17 16 15 15 14 14 14 14 13 12 11 10 10 10 10 10
33 33 34 34 27 25 23 23 23 22 21 21 20 19 17 16 15 15 15 16 16 16 17 18 17 15 15 15 15 14 14 13 12 11 10 10 9 8 7 7 7 7 7 8
29 28 27 26 25 24 23 22 21 21 20 19 18 17 16 15 15 14 15 14 14 13 14 16 15 13 12 13 11 11 9 8 7 7 6 4 3 4 3 2 2 2 2 2
26 26 25 24 24 22 21 21 20 19 19 18 16 14 13 13 13 13 13 12 14 14 13 10 9 8 8 8 7 7 6 6 4 2 1 0 -1 -2 -1 -0 -1 -2 -2 -1
24 23 23 22 21 21 21 20 18 17 17 15 14 13 12 13 13 13 10 9 12 11 8 7 7 7 7 6 5 4 3 1 -0 -1 -2 -3 -3 -3 -3 -4 -4 -4 -4 -5
22 21 21 20 19 19 19 18 17 17 15 14 13 12 10 10 10 10 11 8 8 6 5 5 4 4 4 3 3 2 1 -0 -1 -2 -3 -4 -4 -5 -6 -6 -6 -7 -8 -8
20 20 19 18 17 17 18 18 17 16 15 14 13 13 11 11 10 7 5 4 4 5 4 3 2 1 1 0 -1 -1 -2 -3 -4 -5 -5 -6 -7 -7 -8 -8 -9 -9 -9 -10
19 19 18 18 18 16 13 14 15 14 13 13 12 12 9 7 7 7 6 5 4 3 2 1 0 -1 -1 -2 -2 -4 -6 -7 -7 -7 -8 -8 -9 -9 -8 -9 -10 -11 -12 -13
19 18 18 16 15 14 14 14 13 13 12 11 11 11 9 7 6 7 5 4 3 1 -1 -2 -2 -2 -3 -4 -5 -7 -7 -6 -7 -7 -8 -8 -9 -9 -10 -12 -13 -14 -14 -14
17 16 17 17 15 15 14 13 10 10 9 7 7 7 7 7 5 3 2 1 1 -2 -4 -4 -4 -4 -4 -5 -6 -6 -5 -5 -7 -8 -9 -9 -10 -11 -13 -14 -15 -15 -15 -16
16 15 14 13 14 14 13 11 9 8 7 6 5 5 4 3 2 0 -1 -2 -3 -5 -5 -5 -4 -4 -4 -5 -6 -7 -7 -8 -9 -9 -10 -12 -13 -14 -15 -15 -16 -17 -17 -16

GFSNGP_sfc_30mbdewp_087.txt.gz
Dewpoint
28 28 28 30 28 30 31 31 23 20 21 23 24 26 26 29 29 28 28 27 34 43 46 48 49 51 51 50 50 50 49 49 49 50 50 50 51 52 53 54 55 56 56 56
28 30 29 25 26 26 31 31 30 24 22 26 27 29 28 28 29 29 29 29 28 35 43 46 48 49 50 51 50 50 50 50 50 50 51 52 53 54 55 56 56 56 56 55
23 27 26 21 24 29 30 29 27 24 26 26 26 26 27 28 29 29 29 29 29 29 34 42 46 48 50 51 51 50 49 50 51 52 52 53 53 53 53 53 51 50 49 48
23 25 17 16 28 31 31 30 28 28 28 28 28 28 29 30 29 29 30 30 30 30 33 43 48 49 51 51 52 51 51 51 51 51 51 51 50 49 47 46 45 44 44 43
21 18 20 19 28 29 34 34 34 29 29 30 30 30 28 29 28 29 30 32 32 33 45 49 50 50 50 50 50 50 49 49 49 49 47 46 45 44 44 42 40 39 39 37
24 21 17 25 37 39 36 30 38 38 34 33 32 29 27 29 31 33 30 36 42 47 49 49 50 50 49 49 48 46 46 46 46 45 45 43 43 41 39 37 35 34 33 33
22 21 22 35 38 41 28 28 37 37 39 39 33 31 32 34 46 47 47 48 49 48 48 49 49 49 47 46 44 44 44 44 43 43 42 41 40 38 35 33 31 29 29 28
25 23 21 35 37 30 37 38 38 38 40 40 41 39 39 47 48 47 45 46 47 47 47 48 47 45 44 42 43 42 41 41 40 39 38 38 36 34 33 31 29 28 27 26
28 27 35 33 34 38 39 36 38 38 42 41 42 41 45 45 46 46 45 45 47 46 45 44 44 43 42 41 39 38 36 35 33 32 33 34 34 32 31 30 28 27 25 24
28 27 30 32 34 34 36 36 36 37 41 42 42 44 45 45 44 44 44 43 42 42 41 40 41 41 39 38 36 34 31 29 27 27 27 28 29 29 30 29 28 27 26 24
25 27 30 28 34 32 31 34 38 39 40 43 44 41 39 38 37 37 37 38 36 33 30 30 31 31 32 32 30 28 26 25 25 27 27 26 27 27 27 28 29 27 27 26
24 25 26 26 31 33 33 38 38 41 43 44 44 40 35 33 33 33 32 31 30 29 28 27 28 28 28 28 28 27 25 26 27 27 26 25 25 26 27 27 26 26 26 26
27 31 34 33 35 36 38 36 35 36 44 40 36 34 32 31 30 30 29 29 28 28 28 28 28 28 29 29 29 28 27 26 26 26 25 25 25 24 22 23 22 23 23 24
31 32 32 31 31 37 37 33 29 29 30 32 32 32 31 30 29 28 27 27 27 27 26 26 25 25 27 26 25 24 23 23 23 22 22 22 21 21 20 19 19 18 18 18
30 35 33 36 36 36 33 30 28 26 26 27 28 27 27 26 25 25 26 25 25 23 23 23 23 23 25 24 23 23 21 20 19 18 17 17 17 16 15 14 13 12 12 12
36 36 36 35 37 34 31 29 27 25 25 25 25 24 22 21 21 20 20 20 19 19 20 20 20 21 22 21 19 17 16 16 15 14 13 13 12 12 12 11 11 10 9 8
35 34 35 35 34 30 28 26 26 24 23 23 22 20 19 18 18 17 18 18 18 17 18 18 18 20 20 17 15 14 13 13 13 12 11 11 10 9 9 8 8 7 7 7
32 32 31 32 33 27 24 24 24 23 22 21 20 19 17 16 15 16 16 16 16 15 16 17 16 14 13 13 12 12 11 10 9 8 8 7 6 6 5 5 4 4 4 4
29 27 27 26 26 25 23 23 22 21 19 18 17 16 15 15 15 15 15 14 13 11 13 12 12 11 10 10 8 8 8 6 5 4 3 3 3 2 2 2 1 1 1 1
26 26 25 24 24 23 21 21 20 18 18 16 15 14 13 14 14 14 13 12 13 11 8 7 6 5 5 6 5 5 4 3 1 2 1 0 0 0 -0 -1 -1 -1 -1 -2
23 23 23 22 21 21 20 19 17 15 15 15 13 12 12 13 13 13 10 8 10 9 6 6 4 3 3 2 2 3 2 1 1 -0 -1 -1 -1 -2 -2 -2 -3 -4 -4 -5
21 20 19 19 18 18 19 18 17 15 14 13 12 12 10 10 9 9 10 8 7 5 4 3 3 3 3 1 2 1 -0 -1 -1 -2 -2 -2 -3 -3 -4 -5 -5 -5 -5 -5
19 18 18 17 16 16 16 15 15 14 13 13 12 12 11 11 10 6 4 3 2 3 2 2 2 1 1 1 0 -1 -2 -3 -3 -3 -3 -3 -4 -5 -5 -6 -6 -6 -7 -7
17 17 16 16 16 14 11 13 13 12 12 11 11 11 8 6 6 6 5 4 3 3 2 1 1 0 -0 -1 -2 -3 -4 -4 -3 -3 -4 -5 -5 -5 -6 -7 -8 -8 -9 -9
17 17 16 15 13 12 12 13 12 11 11 10 10 9 8 5 4 4 3 2 1 0 0 -0 -1 -2 -2 -3 -3 -3 -3 -3 -4 -4 -4 -5 -6 -6 -7 -8 -9 -9 -10 -10
16 15 15 15 14 14 13 11 9 9 7 6 6 6 5 4 3 2 1 -1 -1 -1 -1 -1 -2 -2 -2 -3 -3 -3 -3 -4 -4 -5 -5 -6 -8 -8 -9 -10 -10 -10 -10 -10
14 14 13 12 13 12 12 10 8 7 7 5 4 4 3 2 1 -1 -1 -2 -2 -2 -1 -1 -1 -2 -2 -3 -3 -4 -4 -4 -6 -5 -7 -8 -9 -9 -10 -11 -11 -11 -11 -11

GFSNGP_sfc_30mbdewp_090.txt.gz
Dewpoint
21 21 21 20 19 22 23 23 24 25 24 21 21 22 22 21 24 28 28 28 36 41 44 46 48 49 50 50 51 51 49 49 49 50 50 50 50 51 51 51 51 50 51 52
24 24 22 18 16 16 19 21 21 22 25 25 25 22 22 24 25 27 29 30 30 33 40 44 46 49 50 50 51 52 51 50 49 49 49 50 50 51 51 51 51 52 53 54
16 21 22 18 21 19 16 18 23 25 25 26 24 23 22 25 27 28 28 29 29 30 33 41 45 48 49 51 51 51 51 51 51 51 50 50 51 51 52 53 54 53 50 48
19 19 8 7 19 21 20 24 27 33 31 29 27 25 25 28 29 29 30 30 29 31 32 36 43 47 49 50 51 51 51 50 50 51 51 52 53 53 50 48 46 45 42 40
20 13 12 13 21 16 25 22 37 36 37 37 32 29 29 29 29 30 28 29 30 31 32 42 44 47 50 50 51 51 51 51 52 53 51 49 47 45 43 41 39 37 36 35
19 17 12 24 26 33 32 23 36 37 37 37 39 34 30 31 32 36 35 35 34 37 43 45 47 49 50 51 51 50 49 48 48 47 46 44 42 40 38 36 34 33 32 32
21 20 19 19 20 33 26 26 33 36 37 38 37 40 42 40 42 46 46 45 45 45 46 48 50 50 50 48 45 45 45 44 44 43 41 40 38 36 33 32 30 29 27 27
23 23 19 27 32 31 31 32 32 33 36 41 39 41 42 45 47 46 46 46 47 47 48 49 49 47 45 43 43 42 40 39 39 38 37 36 34 33 31 30 28 27 26 26
23 21 26 33 29 29 31 33 32 32 35 41 41 41 45 45 45 46 45 45 46 46 45 45 46 44 41 39 38 37 35 33 33 33 33 33 32 31 30 28 27 26 26 25
22 22 20 21 27 30 33 32 29 34 40 40 38 44 44 44 45 44 44 43 42 40 39 40 40 40 39 37 35 33 32 31 30 30 29 29 30 30 29 28 27 27 26 25
20 21 22 23 23 25 29 31 31 37 39 40 43 42 41 40 40 42 40 37 35 34 34 35 35 35 35 35 33 30 29 29 28 28 27 26 27 27 26 28 30 29 29 29
22 23 23 23 25 32 32 33 37 36 38 43 45 41 38 35 35 34 33 33 32 32 32 32 33 33 32 32 31 30 29 28 28 27 26 25 24 24 25 25 24 25 25 24
26 26 28 29 31 32 35 35 34 35 41 41 39 37 35 32 32 31 30 30 30 30 30 30 30 29 30 31 30 29 28 28 28 28 27 25 24 22 20 21 22 22 21 20
26 27 28 28 27 33 36 34 32 32 34 35 34 33 32 31 31 31 28 27 28 27 26 26 26 26 28 28 27 26 26 26 26 26 26 25 24 23 22 21 18 17 16 16
28 31 31 31 34 34 35 33 31 31 31 30 29 28 27 25 24 24 25 25 25 24 24 24 23 24 26 26 25 24 23 23 23 22 22 20 19 18 17 15 14 13 13 10
35 35 34 33 35 35 34 33 31 29 29 28 27 25 23 22 21 21 22 21 19 19 20 20 20 22 23 22 21 20 18 18 17 16 15 15 15 14 14 13 11 10 8 7
33 32 33 33 34 34 32 31 31 29 27 25 23 22 20 19 18 17 17 18 18 18 19 19 20 22 22 18 15 14 14 14 14 13 13 13 11 10 10 9 8 7 6 5
32 32 32 32 33 34 31 29 27 27 25 23 21 21 19 17 16 15 16 16 16 16 17 18 17 14 13 12 12 13 12 11 10 9 8 8 7 7 6 5 4 4 5 3
29 29 28 27 29 30 28 27 26 25 22 21 20 18 17 16 16 16 17 15 14 13 15 14 12 10 10 11 9 9 8 6 5 5 5 5 5 5 5 5 4 4 3 3
26 26 26 26 26 26 24 22 21 21 20 19 18 16 15 16 16 15 14 13 13 12 8 5 4 4 4 5 5 6 6 5 3 5 5 5 5 4 2 1 2 3 3 2
23 23 22 22 21 21 21 20 18 17 18 18 15 14 13 14 14 14 11 9 12 7 4 3 1 0 1 1 3 6 5 5 4 4 4 3 3 3 3 2 2 2 1 1
21 20 19 19 18 17 18 17 16 15 15 14 13 12 11 10 11 11 12 9 6 4 3 3 2 2 2 2 4 4 3 3 3 3 3 3 2 2 1 1 1 0 1 0
19 18 17 17 15 15 15 15 15 14 14 14 14 14 13 12 13 10 4 3 2 2 2 3 3 3 3 4 4 3 2 2 2 2 2 2 1 1 0 -1 -0 -1 -1 -1
18 17 16 16 15 13 11 12 13 12 11 11 11 11 9 8 7 5 5 4 3 3 3 3 2 2 2 3 2 2 2 2 2 1 -1 -1 0 -1 -1 -2 -2 -2 -2 -3
17 17 16 15 13 12 12 12 12 11 10 9 9 10 10 8 5 4 3 2 1 1 1 0 0 1 2 2 1 1 1 1 1 0 -0 -1 -1 -2 -2 -2 -3 -3 -3 -3
17 16 16 16 14 13 13 12 9 9 8 6 7 7 6 5 3 2 1 1 1 0 1 1 1 1 1 0 0 0 -0 -1 -1 -2 -2 -2 -3 -3 -3 -4 -4 -3 -3 -4
15 14 13 13 13 13 12 11 9 8 8 7 5 4 4 3 1 1 1 1 1 1 1 1 1 -0 -0 -0 -1 -1 -1 -1 -2 -3 -3 -3 -3 -3 -4 -4 -4 -4 -4 -5

GFSNGP_sfc_30mbdewp_093.txt.gz
Dewpoint
13 12 15 16 17 18 18 21 21 21 21 22 23 22 22 23 24 23 24 25 28 36 41 44 46 48 49 50 51 50 49 49 50 52 52 52 53 53 53 54 53 52 52 52
13 17 16 12 10 10 9 13 17 19 19 20 20 22 23 23 22 22 23 23 29 31 37 42 44 47 48 49 51 52 51 50 50 51 51 52 52 53 53 52 52 52 51 51
15 13 15 16 16 14 11 9 10 14 17 19 24 24 23 23 22 20 22 25 27 29 30 35 41 45 47 49 50 51 51 50 50 50 50 51 51 51 51 51 53 51 48 45
20 20 11 10 8 13 13 19 15 8 14 29 28 27 25 23 22 22 25 29 30 30 30 31 34 42 46 48 49 51 51 51 50 51 50 50 51 51 52 49 45 41 39 37
21 16 14 13 17 25 18 16 33 32 31 32 34 36 35 30 27 31 33 32 30 30 30 32 34 40 45 47 49 50 51 51 51 51 51 52 49 45 42 39 36 35 34 33
22 17 13 20 20 21 26 23 32 31 34 36 37 33 35 41 42 40 41 42 38 38 34 36 41 42 46 48 49 49 50 51 52 50 48 44 41 38 36 34 32 31 30 30
23 20 19 19 20 22 23 30 31 31 31 33 35 37 40 40 42 45 46 44 44 42 40 42 44 46 47 50 49 48 46 44 43 42 40 38 35 34 32 30 29 29 28 29
22 23 19 22 28 25 29 29 29 32 31 30 33 38 40 40 43 46 46 46 45 45 46 48 49 49 46 43 42 41 40 38 37 36 35 34 32 32 30 29 28 27 27 26
22 21 22 28 29 28 27 27 29 31 30 32 34 37 42 42 45 45 45 46 47 47 47 46 45 43 39 38 37 36 35 34 34 33 33 32 31 30 29 28 27 27 26 25
21 22 22 23 21 22 22 26 29 29 32 32 32 37 44 46 44 44 43 42 42 42 41 41 40 38 37 36 35 33 32 31 31 30 29 29 30 29 29 28 27 26 26 26
20 20 20 21 22 22 23 29 29 34 33 34 37 43 45 41 38 37 37 37 37 37 37 37 36 35 35 34 33 31 30 29 28 27 26 26 26 26 27 29 30 29 29 27
22 22 25 24 24 27 28 29 32 33 35 42 42 41 39 37 35 33 33 33 35 35 36 37 37 36 35 35 32 30 29 28 27 26 25 24 24 24 27 27 27 26 24 23
24 25 25 27 29 29 28 32 34 34 38 40 37 36 35 33 31 30 28 27 28 28 29 30 31 32 33 33 32 30 29 28 27 27 26 25 23 21 19 22 22 21 19 18
25 25 24 26 27 28 29 34 33 34 35 35 34 33 32 31 29 28 27 27 26 26 25 25 25 26 29 30 29 29 30 30 30 29 28 27 26 24 22 19 16 16 15 14
27 33 33 32 32 31 34 34 33 32 33 31 30 29 27 26 25 25 25 25 24 23 23 23 23 24 26 27 27 27 27 27 27 27 26 24 23 21 20 18 16 14 12 10
34 33 32 32 33 33 34 33 33 32 32 30 27 26 25 23 21 21 21 22 21 19 21 22 22 23 25 25 24 24 23 22 21 20 19 19 18 17 17 14 12 10 8 8
31 31 32 31 32 33 34 34 32 32 31 28 24 22 21 20 19 18 19 20 20 20 21 21 22 24 25 24 20 17 17 16 16 16 15 14 14 13 12 11 9 7 6 7
30 31 31 31 31 31 32 34 32 30 29 25 23 21 20 18 16 16 17 18 18 18 20 21 21 19 17 15 14 14 13 12 11 11 11 11 10 10 9 8 8 7 7 5
28 28 28 28 29 30 30 29 28 26 24 23 20 18 18 18 17 17 18 17 17 16 17 16 13 11 11 11 10 10 9 8 7 8 9 9 9 8 9 8 7 7 6 6
25 25 26 25 26 26 24 24 24 22 21 19 18 17 16 16 16 15 15 15 16 14 9 6 5 5 6 8 8 9 9 9 9 10 9 8 8 7 6 5 6 7 7 6
22 22 22 21 21 21 21 21 20 18 19 18 14 14 14 15 15 16 13 11 13 8 3 2 1 2 4 6 8 10 10 9 9 8 8 8 7 7 7 6 6 6 6 5
21 20 19 18 18 17 18 18 16 15 14 13 13 13 12 11 11 12 14 12 8 5 4 4 4 5 5 7 8 8 7 8 8 8 7 7 6 6 5 5 5 4 4 4
20 19 18 17 16 16 16 16 16 15 15 15 15 15 14 14 13 10 7 7 4 4 5 6 6 7 8 9 8 7 7 6 6 6 6 6 5 5 4 3 4 3 3 2
17 17 17 17 17 15 13 13 13 13 13 13 13 13 11 9 9 10 9 8 6 6 6 6 5 6 7 7 7 7 6 6 5 4 4 4 4 3 3 2 1 2 2 1
18 17 17 16 14 13 13 13 12 12 11 10 10 11 11 12 8 8 7 5 4 3 4 4 4 5 6 6 6 6 6 6 5 5 4 3 3 2 2 2 1 1 0 1
18 17 17 17 16 15 15 13 11 11 10 8 8 9 8 8 7 7 5 4 3 3 5 5 5 5 4 4 4 4 3 3 3 2 2 2 1 1 0 -0 -0 0 1 0
16 16 15 14 15 15 14 13 11 10 10 9 8 7 6 6 5 5 5 5 4 4 4 4 4 3 4 3 3 3 3 2 -0 1 1 1 0 1 -0 -1 -0 -0 -1 -1

GFSNGP_sfc_30mbdewp_096.txt.gz
Dewpoint
10 12 11 11 16 19 20 23 21 22 20 21 22 21 21 23 26 25 24 24 26 34 39 43 47 50 50 51 51 51 50 52 54 54 55 55 55 55 55 55 54 53 53 53
15 11 8 10 11 12 12 13 14 17 19 21 21 20 22 23 23 23 24 24 23 26 33 41 44 49 50 51 51 51 50 50 52 54 54 54 55 55 55 55 55 55 54 54
17 17 12 11 11 9 7 6 7 8 13 16 19 20 22 27 29 27 25 24 23 29 30 38 44 47 49 51 52 52 51 50 51 53 53 54 54 54 54 55 55 52 46 43
20 20 15 16 10 10 12 13 13 24 15 9 18 29 30 33 40 41 41 41 41 38 35 33 35 45 48 50 51 53 52 51 51 52 53 53 53 54 51 47 43 39 37 35
19 17 15 13 14 17 26 25 32 32 33 35 36 35 31 38 39 40 42 46 46 44 43 41 37 35 46 48 49 52 52 52 51 51 52 52 50 44 41 38 36 34 33 32
22 18 13 21 20 20 23 24 31 31 31 33 33 33 32 37 39 40 43 45 45 46 44 44 40 39 40 46 49 51 52 52 52 52 48 43 40 37 35 33 31 31 30 31
24 23 21 24 21 23 19 30 31 32 32 32 30 32 35 38 39 40 44 45 46 46 46 46 47 43 47 49 48 47 45 44 43 42 39 36 34 33 31 30 30 29 29 30
24 22 20 21 21 25 29 27 27 29 32 31 33 34 34 34 40 43 45 44 46 46 48 47 47 46 44 42 42 41 39 38 37 36 35 33 32 31 30 29 28 27 27 27
22 21 23 27 31 31 26 23 23 30 29 31 31 31 33 41 45 44 43 42 43 44 44 43 42 41 39 38 37 37 35 34 33 33 32 31 30 30 29 29 27 27 26 25
32 29 28 30 32 30 23 22 27 29 32 30 31 35 41 44 42 39 38 38 39 40 40 38 38 37 36 36 35 34 32 31 31 31 30 30 30 30 29 28 27 27 26 26
31 23 25 25 28 30 29 28 28 34 32 33 41 43 42 39 38 36 35 36 36 37 36 36 35 34 34 34 32 31 30 29 28 28 27 27 27 28 28 29 29 26 25 24
28 27 28 29 27 28 27 28 34 34 33 39 39 38 37 35 33 32 30 29 28 28 30 35 36 35 34 33 31 29 27 27 26 26 25 24 22 22 26 25 25 25 24 23
29 26 26 25 25 29 29 31 34 34 37 38 36 36 34 31 31 29 28 26 25 25 26 27 28 29 32 32 31 29 26 26 25 24 23 22 21 19 18 21 22 22 21 19
25 28 28 32 30 30 32 35 34 34 34 35 33 32 30 29 28 27 26 27 27 27 26 26 26 27 30 31 30 29 29 28 26 25 23 22 21 21 19 17 15 15 14 15
33 33 32 31 32 32 33 33 33 33 33 31 29 28 27 25 24 23 24 24 24 23 24 25 24 25 28 28 27 27 26 26 27 27 27 25 23 21 19 17 16 16 17 15
32 33 32 32 32 32 32 33 34 33 33 30 27 24 23 22 21 21 22 23 21 21 23 23 23 25 26 26 25 25 25 25 25 24 23 23 21 18 15 13 11 11 12 13
30 30 30 30 31 31 31 32 34 33 31 27 24 22 21 20 19 19 20 21 21 21 22 22 22 24 24 24 23 23 22 22 20 18 17 17 15 14 12 10 9 9 9 10
28 29 29 29 29 30 31 31 30 30 27 24 22 21 19 17 16 17 18 20 20 20 21 22 23 23 23 23 22 19 16 15 15 15 15 14 13 13 12 11 9 8 8 9
26 26 26 26 27 29 28 27 26 25 23 22 19 18 18 18 18 18 19 17 17 15 18 17 15 13 13 14 12 13 13 12 12 12 12 13 13 12 11 11 10 9 9 9
23 23 24 23 23 25 24 24 23 21 21 19 18 17 15 15 16 15 15 14 16 17 13 9 8 9 10 13 13 14 14 13 12 12 12 11 10 9 9 9 10 10 9 8
23 22 21 20 20 20 21 22 20 18 18 17 15 14 14 15 15 14 12 10 14 9 7 6 7 9 11 12 13 14 13 12 12 11 11 11 10 10 10 9 9 8 8 7
21 20 19 19 17 17 18 18 16 16 14 14 14 14 13 13 13 13 14 12 14 13 10 9 10 11 11 12 12 12 12 12 11 11 11 10 9 9 8 8 7 8 7 7
21 20 18 18 16 16 17 16 16 16 15 16 16 15 14 14 13 10 7 12 12 12 12 13 13 12 12 12 12 11 10 10 10 10 9 9 9 8 6 7 6 6 5 3
18 18 18 17 17 14 13 14 14 14 14 13 13 13 11 9 9 10 10 10 10 10 10 11 12 12 12 11 11 10 9 8 8 8 7 7 7 6 5 4 4 5 4 2
17 17 17 16 13 13 13 13 12 12 11 11 11 12 12 12 8 9 9 9 9 9 9 10 10 10 10 10 10 10 9 9 8 7 6 6 5 6 6 3 3 1 2 3
18 17 17 17 16 16 15 13 11 11 10 8 9 9 10 11 11 9 9 9 9 9 9 9 9 8 8 8 7 7 6 5 4 5 5 4 3 4 2 1 2 2 2 1
16 17 16 16 17 16 15 13 11 10 10 9 8 10 10 9 8 8 8 8 8 8 8 7 7 7 7 6 6 6 4 1 0 4 4 3 3 3 1 1 1 1 0 0

GFSNGP_sfc_30mbdewp_099.txt.gz
Dewpoint
17 15 14 11 9 15 27 27 25 25 22 25 34 38 29 24 33 35 37 38 33 29 46 48 49 50 52 52 52 52 53 54 54 54 55 55 54 54 54 54 54 54 52 52
20 21 16 13 10 10 11 12 13 14 14 17 21 24 23 40 40 41 43 45 45 44 44 44 49 49 50 52 52 52 53 53 54 54 55 55 54 55 54 54 54 55 54 54
20 20 21 15 13 12 11 10 8 6 16 17 10 29 38 39 39 39 42 45 45 45 45 44 45 50 50 51 52 51 50 53 53 54 55 55 55 54 54 54 54 49 46 43
24 20 16 16 19 16 14 19 23 30 34 33 34 35 37 38 38 39 41 45 45 45 45 46 45 43 50 51 51 51 50 50 52 54 54 55 55 55 54 48 45 41 38 36
21 19 20 15 18 24 26 31 31 32 32 31 33 34 34 36 37 40 44 45 45 46 46 48 48 49 43 49 52 51 50 50 51 53 54 54 52 46 42 39 36 35 34 33
23 18 17 24 30 22 22 29 33 33 33 32 32 30 32 35 35 42 45 45 45 46 47 47 46 47 48 49 52 53 52 52 53 53 53 47 42 39 36 34 32 32 31 31
23 24 24 26 29 25 19 28 31 30 32 31 31 34 34 35 44 45 44 44 44 45 46 45 44 43 42 43 43 43 43 43 43 42 40 38 35 34 33 32 31 30 30 30
24 22 18 25 25 24 30 30 27 32 30 33 32 32 33 42 45 43 41 41 41 42 43 42 42 41 39 38 39 40 39 39 38 37 36 35 33 31 31 30 29 28 28 28
25 23 26 30 30 34 30 29 29 32 31 30 30 35 42 44 41 38 37 37 38 39 40 39 38 39 38 37 37 37 35 35 34 34 33 32 31 30 29 29 28 27 26 25
28 28 29 29 31 33 30 30 34 33 33 37 42 43 42 41 38 36 34 35 36 37 37 36 36 36 35 35 34 34 33 32 32 31 31 30 30 30 29 28 27 26 25 25
34 34 34 37 34 32 30 35 34 34 39 40 41 38 38 36 35 33 31 30 30 31 34 35 34 34 33 32 31 30 29 28 28 27 26 25 26 28 27 28 26 23 23 22
31 36 36 36 36 35 35 34 35 36 38 37 37 36 35 33 32 30 28 28 28 28 29 31 33 32 31 30 29 28 26 26 25 24 23 23 22 22 25 25 25 25 24 23
36 37 39 33 32 35 35 35 35 35 36 35 34 33 32 31 30 28 27 27 27 27 28 29 29 29 30 28 27 25 24 23 23 22 21 20 19 18 17 21 23 23 24 24
37 35 34 33 33 34 35 35 35 34 34 32 31 30 29 26 25 24 24 25 25 26 27 28 29 29 30 29 27 26 25 24 22 21 20 20 19 18 17 16 15 17 20 20
33 33 33 33 33 32 33 33 34 33 30 29 28 26 25 24 23 23 24 24 24 24 24 24 24 25 29 29 28 27 25 25 24 23 21 20 19 18 17 16 16 16 17 15
31 31 31 31 31 31 31 32 32 33 29 26 24 23 22 22 21 22 23 23 21 21 22 23 23 24 26 26 25 25 25 25 24 23 21 20 18 17 16 15 13 13 14 12
28 28 28 28 29 29 30 31 30 30 27 24 23 22 20 20 19 19 20 21 21 21 22 22 22 24 24 24 24 23 22 22 21 19 18 16 14 12 12 11 11 11 12 12
26 27 26 27 26 28 29 28 27 26 24 23 22 20 18 18 17 18 18 19 19 19 21 22 22 22 23 23 22 22 20 19 17 16 15 13 11 9 9 9 9 9 10 9
23 24 24 23 23 26 26 25 24 23 21 20 18 18 18 18 18 17 17 16 16 15 17 20 21 20 20 20 18 16 15 14 14 14 14 13 13 12 11 11 10 9 9 9
22 22 22 22 20 21 22 22 21 20 20 19 17 16 15 15 16 15 15 14 16 17 18 18 18 18 17 16 15 15 14 13 12 12 11 11 11 11 11 10 9 7 7 7
21 19 20 19 18 18 19 19 18 17 17 16 15 14 13 14 14 14 12 11 15 17 18 18 17 16 15 14 14 14 13 13 12 11 11 10 9 9 8 8 7 6 6 5
20 18 17 16 15 15 15 15 15 14 14 14 15 14 12 11 11 11 13 11 14 15 15 16 16 15 15 14 13 13 12 12 11 10 9 8 7 7 6 6 6 5 4 4
19 17 16 15 15 15 15 15 14 14 14 13 13 12 11 11 11 8 7 12 13 14 14 14 14 14 13 13 12 11 11 10 10 9 8 7 5 5 5 4 3 1 2 2
17 17 16 15 13 12 10 12 12 12 12 12 11 11 9 7 8 10 11 11 12 12 13 13 14 13 12 11 10 9 8 8 8 7 6 5 4 3 3 4 3 1 1 1
16 16 15 13 12 11 11 11 10 10 9 9 10 10 10 10 7 9 10 10 11 10 11 11 10 9 9 8 7 7 8 8 8 7 5 5 5 3 1 -1 -2 0 2 0
16 16 16 16 15 15 13 11 9 9 8 7 8 9 9 10 10 10 10 10 10 9 9 9 9 9 9 8 8 6 5 5 5 4 3 3 1 0 -0 1 1 1 -1 -2
17 16 14 13 15 14 13 12 9 8 9 8 8 9 10 10 9 8 9 9 8 7 7 8 8 8 8 7 4 3 1 2 2 2 2 3 2 -1 -1 -1 -2 -2 -1 -1